Dati Storici

Data ora Umidita' aria (%) Temperatura aria (°C) Rad globale (W/m²) Gonioanemometro (°) Tacoanemometro (m/s) Pioggia (mm)
12-06-2020 00:10 97.7 % 15.647 -76.036 0.005 0 0
12-06-2020 00:00 97.7 % 15.644 -79.78 0.004 0 0
11-06-2020 23:50 97.7 % 15.902 -74.509 0.006 0 0
11-06-2020 23:40 97.7 % 15.983 -74.981 0.005 0 0
11-06-2020 23:30 97.7 % 16.148 -79.752 0.006 0 0
11-06-2020 23:20 97.7 % 16.02 -78.374 0.004 0 0
11-06-2020 23:10 96.8 % 16.188 -71.922 0.004 0 0
11-06-2020 23:00 97.3 % 16.415 -73.766 0.004 0 0
11-06-2020 22:50 96.5 % 16.346 -73.824 0.004 0 0
11-06-2020 22:40 95.1 % 16.368 -71.597 0.005 0 0
11-06-2020 22:30 94.1 % 16.553 -75.759 0.005 0 0
11-06-2020 22:20 93.1 % 16.65 -78.227 0.005 0 0
11-06-2020 22:10 92.7 % 16.821 -77.865 0.009 0 0
11-06-2020 22:00 93 % 16.989 -74.494 -0 0 0
11-06-2020 21:50 91.3 % 17.109 -78.571 0.001 0 0
11-06-2020 21:40 89.6 % 17.112 -77.49 -0.001 0 0
11-06-2020 21:30 87.9 % 17.281 -69.603 0.001 0 0
11-06-2020 21:20 87.3 % 17.745 -70.378 0.001 0 0
11-06-2020 21:10 87.4 % 17.64 -63.632 -0 0 0
11-06-2020 21:00 86.3 % 17.501 -70.376 0.001 0 0

I dati sono presentati in modo automatico a scopo informativo. In seguito a verifica i dati possono subire modifiche o essere invalidati e non riportati negli archivi definitivi.